Regional Weather Roundup
Issued by NWS

Home | Current Version | Previous Version | Graphics & Text | Print | Product List | Glossary Off
Versions: 1 2 3 4 5 6 7 8 9 10 11 12 13 14 15 16 17 18 19 20 21 22 23 24 25 26 27 28 29 30 31 32 33 34 35 36 37 38 39 40 41 42 43 44 45 46 47 48 49 50

000
ASUS43 KLSX 020807
RWRMO

WEATHER SUMMARY FOR MISSOURI
NATIONAL WEATHER SERVICE SPRINGFIELD MO
300 AM CDT THU JUL 02 2015

NOTE: "FAIR" INDICATES FEW OR NO CLOUDS BELOW 12,000 FEET WITH NO
       SIGNIFICANT WEATHER AND/OR OBSTRUCTIONS TO VISIBILITY.
       CURRENT SKY AND/OR WEATHER CONDITIONS ARE NOT AVAILABLE FOR
       CHILLICOTHE AND FARMINGTON.

MOZ001>031-035>038-043-044-053-054-020900-
...NORTHERN AND WESTERN MISSOURI...

CITY           SKY/WX    TMP DP  RH WIND       PRES   REMARKS
KANSAS CTY INT CLOUDY    73  70  90 E9        29.85F
KANSAS C DTWN  PTCLDY    74  70  87 E8        29.83S
LEE`S SUMMIT   CLOUDY    72  69  90 NE9       29.85R
ST JOSEPH      CLOUDY    73  68  84 E8        29.87F
CHILLICOTHE      N/A     71  67  87 E6        29.89S
KIRKSVILLE     CLOUDY    67  64  90 NE9       29.90F FOG

$$
MOZ066>068-077>081-088>096-101>105-020900-
...SOUTHWEST MISSOURI...

CITY           SKY/WX    TMP DP  RH WIND       PRES   REMARKS
SPRINGFIELD    HVY RAIN  70  67  90 E7        29.89F FOG
JOPLIN         CLOUDY    76  68  76 NE7       29.84R

$$
MOZ032>034-039>042-045>050-055>058-069>072-020900-
...CENTRAL MISSOURI...

CITY           SKY/WX    TMP DP  RH WIND       PRES   REMARKS
COLUMBIA       CLOUDY    71  69  93 E5        29.86F
JEFFERSON CITY CLOUDY    71  69  93 N5        29.84F
ROLLA          CLOUDY    68  67  96 N3        29.85F
SEDALIA        CLOUDY    72  69  90 E8        29.86F
WHITEMAN AFB   CLOUDY    71  71 100 E12       29.84S
WARRENSBURG    CLOUDY    70  68  94 NE7       29.84S
OSAGE BEACH    CLOUDY    70  66  88 N5        29.84S

$$
MOZ051-052-059>065-020900-
...EAST CENTRAL MISSOURI...

CITY           SKY/WX    TMP DP  RH WIND       PRES   REMARKS
ST LOUIS INTL  CLOUDY    73  70  88 CALM      29.85S
SPIRIT OF STL  CLOUDY    71  71 100 S3        29.85R
ST CHARLES     LGT RAIN  72  71  97 NE9       29.84S FOG

$$
MOZ072>076-082>087-097>100-106>115-020900-
...SOUTH CENTRAL AND SOUTHEAST MISSOURI...

CITY           SKY/WX    TMP DP  RH WIND       PRES   REMARKS
CAPE GIRARDEAU LGT RAIN  71  69  93 E6        29.86F
FARMINGTON     CLOUDY    66  64  94 SW5       29.89F
WEST PLAINS    TSTM      71  68  90 NW18G33   29.96R VSB 3/4

$$


USA.gov is the U.S. government's official web portal to all federal, state and local government web resources and services.